STARLINK-31106 (58689 NORAD) Tracking and Keplerian Element Data

This shows tracking and keplerian element data for the satellite.

Feedback or suggestion? Click here.




ElementValue
Catalog58689
NameSTARLINK-31106
Epoch Orbit336
Epoch Day12.91667824
Epoch Year2024
RAAN204.0838
Inclination43.0003
Eccentricity0.0002854
Argument of Perigee272.1909
Mean Anonmoly330.7137
Mean Motion15.74246159
Decay Rate-0.01810881
L11 58689U 23211Y 24012.91667824 -.01810881 00000+0 -13925-1 0 9996
L22 58689 43.0003 204.0838 0002854 272.1909 330.7137 15.74246159 3362



Live tracking and technical data element details for STARLINK-31106 (NORAD 58689). STARLINK-31106 can be tracked NOW for your location showing map with azimuth and elevation plus other details from your city location.







IsCatalogInMostPopularTable: catalog: 58689, numindb: 24
Update: records affected: 1



GetName: 58689 STARLINK-31106

Hit Count: updated at: Wed, 17 Apr 2024 03:21:15 GMT